When you browse on this site, cookies collect data to enhance your experience and personalize the content and advertising you see.
Visit our Privacy Policy to learn more. By continuing to use the site, you agree to this use of cookies and data.

Stündliche Wetter Jerewan

Heute, 8 Juli, Mittwoch

Zeit Temperatur Niederschläge Wind Luftdruck Luftfeuchtigkeit
00:00 +26°C° 0 mm 1 m/S 687 mmHg 43%
01:00 +26°C° 0 mm 1 m/S 687 mmHg 45%
02:00 +25°C° 0 mm 1 m/S 687 mmHg 47%
03:00 +24°C° 0 mm 1 m/S 687 mmHg 51%
04:00 +25°C° 0 mm 2 m/S 687 mmHg 50%
05:00 +25°C° 0 mm 2 m/S 687 mmHg 49%
06:00 +26°C° 0 mm 2 m/S 687 mmHg 48%
07:00 +28°C° 0 mm 2 m/S 687 mmHg 43%
08:00 +30°C° 0 mm 2 m/S 687 mmHg 38%
09:00 +32°C° 0 mm 2 m/S 688 mmHg 33%
10:00 +34°C° 0 mm 3 m/S 688 mmHg 30%
11:00 +35°C° 0 mm 3 m/S 688 mmHg 27%
12:00 +37°C° 0 mm 4 m/S 688 mmHg 24%
13:00 +38°C° 0 mm 3 m/S 687 mmHg 22%
14:00 +38°C° 0 mm 2 m/S 687 mmHg 20%
15:00 +39°C° 0 mm 1 m/S 687 mmHg 18%
16:00 +38°C° 0 mm 2 m/S 687 mmHg 21%
17:00 +36°C° 0 mm 4 m/S 687 mmHg 24%
18:00 +35°C° 0 mm 5 m/S 687 mmHg 27%
19:00 +33°C° 0 mm 4 m/S 687 mmHg 33%
20:00 +30°C° 0 mm 4 m/S 687 mmHg 39%
21:00 +27°C° 0 mm 3 m/S 687 mmHg 45%
22:00 +27°C° 0 mm 3 m/S 687 mmHg 47%
23:00 +26°C° 0 mm 3 m/S 688 mmHg 49%

Morgen, 9 Juli, Donnerstag

Zeit Temperatur Niederschläge Wind Luftdruck Luftfeuchtigkeit
00:00 +25°C° 0 mm 3 m/S 688 mmHg 51%
01:00 +25°C° 0 mm 3 m/S 688 mmHg 53%
02:00 +24°C° 0 mm 3 m/S 688 mmHg 55%
03:00 +24°C° 0 mm 3 m/S 688 mmHg 56%
04:00 +24°C° 0 mm 3 m/S 688 mmHg 55%
05:00 +24°C° 0 mm 3 m/S 688 mmHg 54%
06:00 +25°C° 0 mm 3 m/S 688 mmHg 53%
07:00 +27°C° 0 mm 3 m/S 688 mmHg 49%
08:00 +28°C° 0 mm 3 m/S 688 mmHg 44%
09:00 +30°C° 0 mm 3 m/S 689 mmHg 39%
10:00 +33°C° 0 mm 3 m/S 689 mmHg 36%
11:00 +34°C° 0 mm 3 m/S 689 mmHg 32%
12:00 +36°C° 0 mm 2 m/S 689 mmHg 28%
13:00 +36°C° 0 mm 2 m/S 689 mmHg 26%
14:00 +37°C° 0 mm 2 m/S 688 mmHg 25%
15:00 +37°C° 0 mm 2 m/S 688 mmHg 23%
16:00 +35°C° 0.1 mm 3 m/S 688 mmHg 33%
17:00 +32°C° 0.1 mm 5 m/S 688 mmHg 42%
18:00 +28°C° 0.1 mm 6 m/S 687 mmHg 52%
19:00 +27°C° 0.1 mm 4 m/S 688 mmHg 55%
20:00 +26°C° 0.1 mm 3 m/S 688 mmHg 58%
21:00 +25°C° 0.1 mm 2 m/S 689 mmHg 61%
22:00 +25°C° 0.3 mm 1 m/S 689 mmHg 63%
23:00 +24°C° 0.3 mm 1 m/S 689 mmHg 65%

übermorgen, 10 Juli, Freitag

Zeit Temperatur Niederschläge Wind Luftdruck Luftfeuchtigkeit
00:00 +23°C° 0.3 mm 1 m/S 689 mmHg 67%
01:00 +23°C° 0.1 mm 1 m/S 689 mmHg 68%
02:00 +23°C° 0.1 mm 1 m/S 689 mmHg 69%
03:00 +21°C° 0.1 mm 2 m/S 688 mmHg 70%
04:00 +21°C° 0.4 mm 2 m/S 689 mmHg 69%
05:00 +23°C° 0.4 mm 2 m/S 689 mmHg 68%
06:00 +23°C° 0.4 mm 2 m/S 689 mmHg 67%
07:00 +25°C° 0.4 mm 2 m/S 689 mmHg 61%
08:00 +26°C° 0.4 mm 1 m/S 689 mmHg 56%
09:00 +28°C° 0.4 mm 1 m/S 689 mmHg 51%
10:00 +29°C° 0.1 mm 1 m/S 689 mmHg 46%
11:00 +31°C° 0.1 mm 1 m/S 689 mmHg 42%
12:00 +32°C° 0.1 mm 1 m/S 689 mmHg 38%
13:00 +33°C° 0.2 mm 3 m/S 689 mmHg 40%
14:00 +32°C° 0.2 mm 4 m/S 689 mmHg 42%
15:00 +32°C° 0.2 mm 5 m/S 688 mmHg 45%
16:00 +30°C° 0.1 mm 5 m/S 689 mmHg 45%
17:00 +30°C° 0.1 mm 5 m/S 689 mmHg 46%
18:00 +29°C° 0.1 mm 5 m/S 689 mmHg 46%
19:00 +28°C° 0.3 mm 4 m/S 689 mmHg 52%
20:00 +26°C° 0.3 mm 3 m/S 689 mmHg 57%
21:00 +25°C° 0.3 mm 1 m/S 690 mmHg 63%
22:00 +24°C° 0.5 mm 1 m/S 689 mmHg 66%
23:00 +23°C° 0.5 mm 1 m/S 689 mmHg 69%

11 Juli, Samstag

Zeit Temperatur Niederschläge Wind Luftdruck Luftfeuchtigkeit
00:00 +23°C° 0.5 mm 1 m/S 689 mmHg 72%
01:00 +20°C° 0.3 mm 0 m/S 689 mmHg 73%
02:00 +20°C° 0.3 mm 0 m/S 689 mmHg 74%
03:00 +20°C° 0.3 mm 0 m/S 689 mmHg 76%
04:00 +20°C° 0.3 mm 0 m/S 689 mmHg 73%
05:00 +21°C° 0.3 mm 0 m/S 689 mmHg 71%
06:00 +21°C° 0.3 mm 0 m/S 689 mmHg 69%
07:00 +25°C° 0.1 mm 1 m/S 689 mmHg 64%
08:00 +26°C° 0.1 mm 1 m/S 690 mmHg 58%
09:00 +28°C° 0.1 mm 1 m/S 690 mmHg 52%
10:00 +29°C° 0.2 mm 1 m/S 690 mmHg 48%
11:00 +31°C° 0.2 mm 1 m/S 690 mmHg 43%
12:00 +32°C° 0.2 mm 1 m/S 690 mmHg 38%
13:00 +34°C° 0.1 mm 2 m/S 689 mmHg 36%
14:00 +35°C° 0.1 mm 2 m/S 689 mmHg 33%
15:00 +36°C° 0.1 mm 2 m/S 689 mmHg 31%
16:00 +35°C° 0.1 mm 2 m/S 689 mmHg 32%
17:00 +34°C° 0.1 mm 3 m/S 689 mmHg 33%
18:00 +34°C° 0.1 mm 3 m/S 689 mmHg 34%
19:00 +30°C° 1 mm 3 m/S 689 mmHg 45%
20:00 +27°C° 1 mm 3 m/S 689 mmHg 56%
21:00 +25°C° 1 mm 3 m/S 689 mmHg 67%
22:00 +24°C° 0.8 mm 2 m/S 689 mmHg 69%
23:00 +24°C° 0.8 mm 2 m/S 689 mmHg 72%

12 Juli, Sonntag

Zeit Temperatur Niederschläge Wind Luftdruck Luftfeuchtigkeit
00:00 +23°C° 0.8 mm 1 m/S 688 mmHg 74%
01:00 +23°C° 0.2 mm 1 m/S 688 mmHg 75%
02:00 +23°C° 0.2 mm 1 m/S 688 mmHg 75%
03:00 +22°C° 0.2 mm 1 m/S 687 mmHg 76%
04:00 +23°C° 0 mm 1 m/S 687 mmHg 74%
05:00 +23°C° 0 mm 1 m/S 687 mmHg 73%
06:00 +23°C° 0 mm 1 m/S 687 mmHg 71%
07:00 +25°C° 0 mm 1 m/S 687 mmHg 65%
08:00 +26°C° 0 mm 1 m/S 688 mmHg 59%
09:00 +28°C° 0 mm 1 m/S 688 mmHg 52%
10:00 +29°C° 0.1 mm 1 m/S 688 mmHg 48%
11:00 +31°C° 0.1 mm 2 m/S 688 mmHg 43%
12:00 +32°C° 0.1 mm 2 m/S 688 mmHg 39%
13:00 +34°C° 0 mm 2 m/S 687 mmHg 35%
14:00 +35°C° 0 mm 2 m/S 687 mmHg 32%
15:00 +36°C° 0 mm 2 m/S 687 mmHg 29%
16:00 +35°C° 0 mm 3 m/S 687 mmHg 30%
17:00 +35°C° 0 mm 3 m/S 687 mmHg 31%
18:00 +35°C° 0 mm 3 m/S 687 mmHg 32%
19:00 +33°C° 0 mm 3 m/S 687 mmHg 36%
20:00 +30°C° 0 mm 3 m/S 687 mmHg 41%
21:00 +28°C° 0 mm 3 m/S 687 mmHg 46%
22:00 +27°C° 0.2 mm 3 m/S 687 mmHg 49%
23:00 +26°C° 0.2 mm 2 m/S 686 mmHg 53%

13 Juli, Montag

Zeit Temperatur Niederschläge Wind Luftdruck Luftfeuchtigkeit
00:00 +25°C° 0.2 mm 1 m/S 686 mmHg 56%
01:00 +25°C° 0.4 mm 1 m/S 686 mmHg 60%
02:00 +24°C° 0.4 mm 1 m/S 686 mmHg 64%
03:00 +23°C° 0.4 mm 1 m/S 685 mmHg 68%
04:00 +24°C° 0.1 mm 1 m/S 685 mmHg 66%
05:00 +24°C° 0.1 mm 1 m/S 686 mmHg 65%
06:00 +24°C° 0.1 mm 1 m/S 686 mmHg 64%
07:00 +26°C° 0 mm 1 m/S 686 mmHg 58%
08:00 +28°C° 0 mm 1 m/S 686 mmHg 52%
09:00 +29°C° 0 mm 2 m/S 686 mmHg 46%
10:00 +31°C° 0 mm 1 m/S 686 mmHg 42%
11:00 +32°C° 0 mm 1 m/S 686 mmHg 38%
12:00 +33°C° 0 mm 1 m/S 686 mmHg 34%
13:00 +34°C° 0.1 mm 1 m/S 685 mmHg 32%
14:00 +36°C° 0.1 mm 2 m/S 685 mmHg 31%
15:00 +36°C° 0.1 mm 2 m/S 685 mmHg 29%
16:00 +35°C° 0.1 mm 3 m/S 685 mmHg 32%
17:00 +34°C° 0.1 mm 3 m/S 685 mmHg 35%
18:00 +33°C° 0.1 mm 4 m/S 685 mmHg 38%
19:00 +30°C° 0.4 mm 3 m/S 685 mmHg 44%
20:00 +28°C° 0.4 mm 3 m/S 685 mmHg 50%
21:00 +26°C° 0.4 mm 2 m/S 686 mmHg 55%
22:00 +26°C° 0.1 mm 2 m/S 686 mmHg 57%
23:00 +25°C° 0.1 mm 1 m/S 686 mmHg 59%
Mehr zeigen